Location: Gorze? G�rny
(49.8500°N, 19.5000°E)
Time: 12:52:48
(UTC+00:00)

ATLAS 2AS CENTAUR R/B - Pass Details

Date: 13 May 2021
Orbit: 949 x 1263 km, 63.7° (Epoch: 07 May)

Event Time Altitude Azimuth Distance (km) Brightness Sun altitude
Rises 21:45:41 0° 314° (NW) 4,079 6.7 -20.6°
Reaches altitude 10° 21:48:50 10° 305° (NW) 3,064 5.7 -20.7°
Maximum altitude 21:54:56 30° 248° (WSW) 1,863 3.8 -20.9°
Enters shadow 21:57:25 24° 214° (SW) 2,070 3.8 -20.9°
